Weather History for Jackson, WY

Change the Weather History Date:

Friday, January 23, 2015

  Actual Average Record
Temperature  
Mean Temperature 8 °F -  
Max Temperature 19 °F 25 °F 40 °F (1970)
Min Temperature -2 °F 0 °F -35 °F (1962)
Degree Days  
Heating Degree Days 56    
Moisture  
Dew Point 3 °F    
Average Humidity 92    
Maximum Humidity 100    
Minimum Humidity 79    
Precipitation  
Precipitation 0.00 in - - ()
Sea Level Pressure  
Sea Level Pressure 30.41 in    
Wind  
Wind Speed 5 mph (NNE)    
Max Wind Speed 12 mph    
Max Gust Speed -    
Visibility 10 miles    
Events Snow    
Averages and records for this station are not official NWS values.
T = Trace of Precipitation, MM = Missing Value Source: NWS Daily Summary

Daily Weather History Graph

Daily Weather History Graph

Search for Another Location

Airport:

Trip Planner

Search our weather history database for the weather conditions in past years. The results will help you decide how hot, cold, wet, or windy it might be!

Date:

Astronomy

Jan. 23, 2015 Rise Set
Actual Time 7:48 AM MST 5:21 PM MST
Civil Twilight 7:16 AM MST 5:53 PM MST
Nautical Twilight 6:41 AM MST 6:28 PM MST
Astronomical Twilight 6:07 AM MST 7:02 PM MST
Moon 9:34 AM MST (1/23) 9:44 PM MST (1/23)
Length of Visible Light 10h 36m
Length of Day
9h 33m
Waxing Crescent, 15% of the Moon is Illuminated
Jan 23
Waxing Crescent
Jan 26
First Quarter
Feb 3
Full
Feb 11
Last Quarter
Feb 18
New

Hourly Weather History & Observations

Time (MST) Temp. Windchill Dew Point Humidity Pressure Visibility Wind Dir Wind Speed Gust Speed Precip Events Conditions
12:15 AM -0.4 °F -15.7 °F -2.2 °F 92% 30.39 in 10.0 mi North 9.2 mph - N/A   Clear
12:35 AM -0.4 °F -15.7 °F -2.2 °F 92% 30.38 in 10.0 mi North 9.2 mph - N/A   Clear
12:55 AM -2.2 °F -14.2 °F -2.2 °F 100% 30.38 in 10.0 mi NNE 5.8 mph - N/A   Clear
1:15 AM -0.4 °F -14.7 °F -2.2 °F 92% 30.39 in 10.0 mi North 8.1 mph - N/A   Clear
1:35 AM -0.4 °F -12.0 °F -2.2 °F 92% 30.39 in 10.0 mi North 5.8 mph - N/A   Partly Cloudy
1:55 AM -0.4 °F -10.4 °F -2.2 °F 92% 30.39 in 10.0 mi NNE 4.6 mph - N/A   Partly Cloudy
2:15 AM -2.2 °F -16.8 °F -2.2 °F 100% 30.39 in 10.0 mi North 8.1 mph - N/A   Clear
2:35 AM -2.2 °F -15.6 °F -4.0 °F 92% 30.39 in 10.0 mi NNE 6.9 mph - N/A   Partly Cloudy
2:55 AM -0.4 °F -10.4 °F -2.2 °F 92% 30.40 in 10.0 mi North 4.6 mph - N/A   Partly Cloudy
3:15 AM -0.4 °F -13.4 °F -2.2 °F 92% 30.40 in 10.0 mi North 6.9 mph - N/A   Mostly Cloudy
3:35 AM 1.4 °F -8.3 °F -0.4 °F 92% 30.39 in 10.0 mi North 4.6 mph - N/A   Overcast
3:55 AM 1.4 °F -6.2 °F -0.4 °F 92% 30.39 in 10.0 mi North 3.5 mph - N/A   Scattered Clouds
4:15 AM 1.4 °F - -0.4 °F 92% 30.38 in 10.0 mi Calm Calm - N/A   Mostly Cloudy
4:35 AM 1.4 °F -6.2 °F -0.4 °F 92% 30.38 in 10.0 mi ENE 3.5 mph - N/A   Overcast
4:55 AM 3.2 °F - 1.4 °F 92% 30.38 in 10.0 mi Calm Calm - N/A   Mostly Cloudy
5:15 AM 5.0 °F -2.1 °F 3.2 °F 92% 30.39 in 10.0 mi North 3.5 mph - N/A   Overcast
5:35 AM 6.8 °F - 3.2 °F 85% 30.39 in 10.0 mi Calm Calm - N/A   Overcast
5:55 AM 5.0 °F - 3.2 °F 92% 30.38 in 10.0 mi Calm Calm - N/A   Mostly Cloudy
6:15 AM 3.2 °F - 3.2 °F 100% 30.38 in 10.0 mi Calm Calm - N/A   Scattered Clouds
6:35 AM 5.0 °F - 3.2 °F 92% 30.39 in 10.0 mi Calm Calm - N/A   Mostly Cloudy
6:52 AM 6.8 °F - 3.2 °F 85% 30.39 in 10.0 mi Calm Calm - N/A   Mostly Cloudy
7:00 AM 8.6 °F - 6.8 °F 92% 30.40 in 6.0 mi Calm Calm - N/A Snow Light Snow
7:52 AM 6.8 °F - 5.0 °F 92% 30.40 in 4.0 mi Calm Calm - N/A Snow Light Snow
9:01 AM 8.6 °F - 6.8 °F 92% 30.42 in 5.0 mi Calm Calm - N/A Snow Light Snow
9:51 AM 8.6 °F - 6.8 °F 92% 30.44 in 6.0 mi Calm Calm - N/A   Scattered Clouds
10:54 AM 10.4 °F - 8.6 °F 92% 30.47 in 10.0 mi Calm Calm - N/A   Mostly Cloudy
11:51 AM 12.2 °F - 10.4 °F 92% 30.46 in 10.0 mi Calm Calm - N/A   Partly Cloudy
12:51 PM 15.8 °F - 10.4 °F 79% 30.43 in 10.0 mi Calm Calm - N/A   Partly Cloudy
1:52 PM 10.4 °F 2.2 °F 10.4 °F 100% 30.42 in 10.0 mi East 4.6 mph - N/A   Partly Cloudy
2:52 PM 19.4 °F - 14.0 °F 80% 30.42 in 10.0 mi Calm Calm - N/A   Clear
3:51 PM 17.6 °F - 12.2 °F 79% 30.41 in 10.0 mi Calm Calm - N/A   Clear
4:51 PM 17.6 °F - 12.2 °F 79% 30.43 in 10.0 mi Calm Calm - N/A   Clear
5:52 PM 17.6 °F - 12.2 °F 79% 30.42 in 10.0 mi Calm Calm - N/A   Clear
6:52 PM 10.4 °F 2.2 °F 8.6 °F 92% 30.44 in 10.0 mi Variable 4.6 mph - N/A   Clear
7:52 PM 3.2 °F -9.1 °F 3.2 °F 100% 30.44 in 10.0 mi Variable 6.9 mph - N/A   Clear
8:55 PM 3.2 °F -12.2 °F 1.4 °F 92% 30.45 in 10.0 mi North 10.4 mph - N/A   Clear
9:15 PM 3.2 °F -6.2 °F 3.2 °F 100% 30.45 in 10.0 mi NNE 4.6 mph - N/A   Clear
9:35 PM 1.4 °F -14.5 °F -0.4 °F 92% 30.44 in 10.0 mi North 10.4 mph - N/A   Clear
9:55 PM -0.4 °F -16.7 °F -2.2 °F 92% 30.43 in 10.0 mi North 10.4 mph - N/A   Clear
10:15 PM 1.4 °F -12.5 °F -0.4 °F 92% 30.42 in 10.0 mi NE 8.1 mph - N/A   Clear
10:35 PM 1.4 °F -8.3 °F -0.4 °F 92% 30.40 in 10.0 mi NNE 4.6 mph - N/A   Clear
10:55 PM -0.4 °F -15.7 °F -2.2 °F 92% 30.42 in 10.0 mi North 9.2 mph - N/A   Clear
11:15 PM -0.4 °F -17.6 °F -0.4 °F 100% 30.43 in 10.0 mi North 11.5 mph - N/A   Clear
11:35 PM 1.4 °F -13.5 °F -0.4 °F 92% 30.41 in 10.0 mi North 9.2 mph - N/A   Clear
11:55 PM 1.4 °F -15.3 °F 1.4 °F 100% 30.43 in 10.0 mi North 11.5 mph - N/A   Clear